User: anonymous   Login
Location: Bushey
(51.6333°N, 0.3667°W)
Time: 00:19:46
(UTC+00:00)
Language:

SL-8 Rocket - Orbit

View from above orbital plane
View from above orbital plane
View from above satellite
View from above satellite

Ground track
Ground track

The orbit data is extracted from the following two-line orbital elements,

1 21088U 91006B   21138.26193188  .00000055  00000-0  40083-4 0  9997
2 21088  82.9455  36.2986 0021209 274.4584 202.5017 13.77163867522292
Epoch (UTC): 18 May 2021 06:17:10
Eccentricity: 0.0021209
inclination: 82.9455°
perigee height: 958 km
apogee height: 989 km
right ascension of ascending node: 36.2986°
argument of perigee: 274.4584°
revolutions per day: 13.77163867
mean anomaly at epoch: 202.5017°
orbit number at epoch: 52229

The dashed part of the orbit path shows where the satellite is in the earth's shadow,  

DLR